Location: ????
(32.1228°N, 34.8377°E)
Time: 04:03:57
(UTC+00:00)

SJ-12 - Pass Details

Date: 21 September 2020
Orbit: 570 x 584 km, 97.7° (Epoch: 23 October)

Event Time Altitude Azimuth Distance (km) Brightness Sun altitude
Rises 02:58:08 0° 5° (N) 2,805 7.6 -7.2°
Reaches altitude 10° 03:00:19 10° 1° (N) 1,904 6.7 -6.8°
Maximum altitude 03:04:20 52° 285° (WNW) 728 4.1 -5.9°
Drops below altitude 10° 03:08:20 10° 208° (SSW) 1,896 6.3 -5.1°
Sets 03:10:31 0° 204° (SSW) 2,792 7.1 -4.6°
